| time (UTC) | temp C | wind direction | speed KPH | gust KPH | rain 1hr cm | rain 24hr cm | rain mn cm | humidity % | barometer mb |
| 20260506081925 | 17 | 38 | 1.6 | 4.8 | 0.00 | 0.48 | 0.00 | 70 | 1007.3 |
| 20260506080426 | 16 | 112 | 1.6 | 6.4 | 0.00 | 0.48 | 0.00 | 67 | 1007.5 |
| 20260506073423 | 15 | 309 | 0.0 | 4.8 | 0.00 | 0.48 | 0.00 | 73 | 1007.7 |
| 20260506071745 | 14 | 200 | 0.0 | 0.0 | 0.00 | 0.48 | 0.00 | 78 | 1008.0 |
| 20260506060413 | 11 | 200 | 0.0 | 0.0 | 0.00 | 0.48 | 0.00 | 94 | 1008.1 |
| 20260506050412 | 10 | 246 | 0.0 | 0.0 | 0.00 | 0.48 | 0.00 | 94 | 1008.5 |
| 20260506044911 | 9 | 246 | 0.0 | 1.6 | 0.00 | 0.48 | 0.00 | 94 | 1008.5 |
| 20260506043409 | 9 | 246 | 0.0 | 1.6 | 0.00 | 0.48 | 0.00 | 93 | 1008.4 |
| 20260506041909 | 9 | 246 | 0.0 | 1.6 | 0.00 | 0.48 | 0.00 | 93 | 1008.5 |
| 20260506034909 | 9 | 246 | 0.0 | 1.6 | 0.00 | 0.48 | 0.00 | 93 | 1008.6 |
| 20260506033403 | 9 | 246 | 0.0 | 1.6 | 0.00 | 0.48 | 0.00 | 93 | 1008.7 |
| 20260506030403 | 9 | 246 | 0.0 | 4.8 | 0.00 | 0.48 | 0.00 | 93 | 1008.9 |
| 20260506024901 | 9 | 178 | 0.0 | 1.6 | 0.00 | 0.48 | 0.00 | 93 | 1009.2 |
| 20260506021902 | 9 | 179 | 1.6 | 4.8 | 0.00 | 0.48 | 0.00 | 92 | 1009.1 |
| 20260506020404 | 9 | 223 | 1.6 | 3.2 | 0.00 | 0.48 | 0.00 | 92 | 1008.9 |
| 20260506014904 | 9 | 223 | 0.0 | 1.6 | 0.00 | 0.48 | 0.00 | 92 | 1009.1 |
| 20260506013402 | 10 | 223 | 0.0 | 0.0 | 0.00 | 0.48 | 0.00 | 92 | 1009.1 |
| 20260506011907 | 10 | 223 | 0.0 | 1.6 | 0.00 | 0.48 | 0.00 | 92 | 1009.2 |
| 20260506010402 | 10 | 223 | 0.0 | 1.6 | 0.00 | 0.48 | 0.00 | 92 | 1009.5 |
| 20260506004903 | 10 | 223 | 0.0 | 4.8 | 0.00 | 0.48 | 0.00 | 92 | 1009.3 |
| 20260506003401 | 11 | 223 | 0.0 | 3.2 | 0.00 | 0.48 | 0.00 | 92 | 1009.5 |
| 20260506001903 | 11 | 223 | 0.0 | 3.2 | 0.00 | 0.48 | 0.00 | 92 | 1009.5 |
| 20260506000402 | 11 | 223 | 0.0 | 0.0 | 0.00 | 0.48 | 0.00 | 92 | 1009.8 |
| 20260505234902 | 11 | 223 | 0.0 | 1.6 | 0.00 | 0.48 | 0.00 | 92 | 1009.9 |
| 20260505233404 | 11 | 223 | 0.0 | 3.2 | 0.00 | 0.48 | 0.00 | 92 | 1010.0 |
| 20260505231901 | 11 | 223 | 1.6 | 6.4 | 0.00 | 0.48 | 0.00 | 92 | 1010.3 |
| 20260505230405 | 11 | 230 | 1.6 | 6.4 | 0.00 | 0.48 | 0.00 | 92 | 1010.3 |
| 20260505224904 | 12 | 213 | 3.2 | 11.3 | 0.00 | 0.48 | 0.00 | 92 | 1010.3 |
| 20260505220357 | 12 | 283 | 3.2 | 11.3 | 0.10 | 0.48 | 0.00 | 91 | 1010.6 |
| 20260505214857 | 12 | 242 | 1.6 | 8.0 | 0.20 | 0.38 | 0.48 | 91 | 1010.5 |
| 20260505213400 | 12 | 306 | 3.2 | 11.3 | 0.30 | 0.38 | 0.48 | 90 | 1010.7 |
| 20260505211858 | 12 | 295 | 4.8 | 14.5 | 0.28 | 0.38 | 0.43 | 89 | 1010.6 |
| 20260505210359 | 13 | 195 | 1.6 | 8.0 | 0.25 | 0.38 | 0.38 | 88 | 1010.5 |
| 20260505204859 | 13 | 196 | 3.2 | 8.0 | 0.15 | 0.13 | 0.28 | 87 | 1010.3 |
| 20260505201858 | 13 | 219 | 3.2 | 8.0 | 0.10 | 0.13 | 0.15 | 84 | 1009.7 |
| 20260505200350 | 14 | 236 | 1.6 | 8.0 | 0.08 | 0.13 | 0.13 | 82 | 1009.5 |
| 20260505193353 | 15 | 168 | 0.0 | 4.8 | 0.03 | 0.05 | 0.08 | 76 | 1008.5 |
| 20260505191847 | 15 | 269 | 0.0 | 3.2 | 0.00 | 0.05 | 0.05 | 74 | 1008.3 |
| 20260505190349 | 16 | 269 | 0.0 | 3.2 | 0.00 | 0.05 | 0.05 | 70 | 1008.0 |
| 20260505184850 | 16 | 269 | 0.0 | 4.8 | 0.00 | 0.05 | 0.05 | 68 | 1007.7 |
| 20260505181850 | 16 | 24 | 3.2 | 9.7 | 0.00 | 0.05 | 0.05 | 65 | 1007.6 |
| 20260505180346 | 16 | 283 | 3.2 | 12.9 | 0.00 | 0.05 | 0.05 | 67 | 1007.5 |
| 20260505173349 | 17 | 198 | 3.2 | 9.7 | 0.00 | 0.05 | 0.05 | 66 | 1007.2 |
| 20260505170344 | 17 | 74 | 3.2 | 8.0 | 0.00 | 0.05 | 0.05 | 69 | 1007.0 |
| 20260505164841 | 18 | 176 | 3.2 | 11.3 | 0.00 | 0.05 | 0.05 | 68 | 1007.0 |
| 20260505161841 | 17 | 73 | 1.6 | 4.8 | 0.00 | 0.05 | 0.05 | 71 | 1007.1 |
| 20260505160342 | 16 | 57 | 3.2 | 8.0 | 0.00 | 0.05 | 0.05 | 78 | 1007.1 |
| 20260505153341 | 16 | 51 | 3.2 | 9.7 | 0.05 | 0.03 | 0.05 | 82 | 1007.3 |
| 20260505151842 | 16 | 341 | 0.0 | 8.0 | 0.05 | 0.03 | 0.05 | 82 | 1007.6 |
| 20260505150342 | 17 | 264 | 1.6 | 4.8 | 0.05 | 0.03 | 0.05 | 75 | 1007.6 |
| 20260505140341 | 21 | 271 | 3.2 | 14.5 | 0.00 | 0.00 | 0.00 | 46 | 1006.8 |
| 20260505124835 | 23 | 220 | 3.2 | 9.7 | 0.00 | 0.00 | 0.00 | 43 | 1006.7 |
| 20260505123338 | 24 | 280 | 1.6 | 6.4 | 0.00 | 0.00 | 0.00 | 40 | 1006.8 |
| 20260505121837 | 23 | 0 | 1.6 | 6.4 | 0.00 | 0.00 | 0.00 | 40 | 1006.9 |
| 20260505114835 | 24 | 88 | 3.2 | 14.5 | 0.00 | 0.00 | 0.00 | 40 | 1006.9 |
| 20260505113336 | 25 | 282 | 1.6 | 11.3 | 0.00 | 0.00 | 0.00 | 38 | 1007.0 |
| 20260505111835 | 25 | 260 | 3.2 | 6.4 | 0.00 | 0.00 | 0.00 | 35 | 1007.1 |
| 20260505110337 | 25 | 53 | 3.2 | 9.7 | 0.00 | 0.00 | 0.00 | 37 | 1007.3 |
| 20260505101835 | 23 | 69 | 1.6 | 9.7 | 0.00 | 0.00 | 0.00 | 42 | 1008.0 |
| 20260505093336 | 22 | 271 | 1.6 | 6.4 | 0.00 | 0.00 | 0.00 | 47 | 1008.6 |
| 20260505091835 | 22 | 186 | 1.6 | 6.4 | 0.00 | 0.00 | 0.00 | 46 | 1008.8 |
| 20260505090336 | 22 | 245 | 3.2 | 8.0 | 0.00 | 0.00 | 0.00 | 46 | 1008.8 |
| 20260505084833 | 22 | 36 | 3.2 | 8.0 | 0.00 | 0.00 | 0.00 | 49 | 1009.0 |
| 20260505083334 | 21 | 55 | 1.6 | 6.4 | 0.00 | 0.00 | 0.00 | 56 | 1009.2 |